GOES 1 (SMS-C) 1 08366U 75100A 25296.88546554 -.00000104 00000+0 00000+0 0 9999 2 08366 5.2137 280.4027 0005739 327.4602 2.8893 1.00227236182693 GOES 2 1 10061U 77048A 25296.72501419 -.00000185 00000+0 00000+0 0 9990 2 10061 6.9864 295.3060 0011350 39.4511 128.5132 0.99402306 43924 GOES 3 1 10953U 78062A 25296.16643406 .00000090 00000+0 00000+0 0 9992 2 10953 7.4422 300.9721 0002919 290.5441 92.0743 0.99359444126187 GOES 4 1 11964U 80074A 25296.72388385 .00000020 00000+0 00000+0 0 9998 2 11964 8.5031 304.6997 0029849 103.7546 325.8439 0.99226942125090 GOES 5 1 12472U 81049A 25296.03548242 -.00000279 00000+0 00000+0 0 9997 2 12472 9.7869 317.1972 0004564 293.5689 85.1680 1.00251997120474 GOES 6 1 14050U 83041A 25296.03227573 -.00000215 00000+0 00000+0 0 9996 2 14050 10.5720 322.7482 0004072 250.7627 104.5550 1.00231681213634 GOES 7 1 17561U 87022A 25296.77116716 .00000126 00000+0 00000+0 0 9996 2 17561 13.1432 339.2930 0000811 342.9185 31.2855 0.99894955124602 GOES 8 1 23051U 94022A 25296.71036744 -.00000056 00000+0 00000+0 0 9994 2 23051 14.2276 15.4541 0001684 95.1692 273.7431 0.98903376121798 GOES 9 1 23581U 95025A 25296.20739373 .00000004 00000+0 00000+0 0 9990 2 23581 13.7517 16.2567 0008366 185.0106 165.9395 0.98798037110412 GOES 10 1 24786U 97019A 25296.17657411 -.00000106 00000+0 00000+0 0 9995 2 24786 12.8465 22.7806 0031941 229.9027 125.2505 0.99123535103718 GOES 11 1 26352U 00022A 25296.54781916 -.00000279 00000+0 00000+0 0 9994 2 26352 11.3001 48.7012 0005802 206.8964 121.7155 0.99045153 50124 GOES 12 1 26871U 01031A 25296.71470080 -.00000214 00000+0 00000+0 0 9996 2 26871 11.7535 39.2337 0005788 268.2052 100.5769 0.99137482 88421 EWS-G1 (GOES 13) 1 29155U 06018A 25296.52368653 .00000062 00000+0 00000+0 0 9995 2 29155 3.9139 79.2916 0059237 268.0150 107.2396 0.98785964 40919 GOES 14 1 35491U 09033A 25296.48655787 -.00000055 00000+0 00000+0 0 9990 2 35491 1.0644 85.9943 0003878 124.1164 248.7594 1.00272184 4224 EWS-G2 (GOES 15) 1 36411U 10008A 25296.93288875 .00000048 00000+0 00000+0 0 9998 2 36411 0.6828 85.7075 0005793 150.6978 193.5467 1.00275491 57267 GOES 16 1 41866U 16071A 25296.48655787 -.00000080 00000+0 00000+0 0 9991 2 41866 0.0757 70.1647 0002594 161.4609 231.0215 1.00272475 32735 GOES 17 1 43226U 18022A 25296.88763222 -.00000171 00000+0 00000+0 0 9990 2 43226 0.3257 90.2562 0002723 163.7775 8.5848 1.00272794 28050 GOES 18 1 51850U 22021A 25296.73550091 .00000108 00000+0 00000+0 0 9997 2 51850 0.0554 65.9569 0000456 206.1534 248.0939 1.00273093 4229 GOES 19 1 60133U 24119A 25296.89049223 -.00000237 00000+0 00000+0 0 9992 2 60133 0.0048 46.7340 0000719 237.4692 353.7617 1.00271859 4594